Regional Weather Roundup
Issued by NWS

Home | Current Version | Previous Version | Graphics & Text | Print | Product List | Glossary On
Versions: 1 2 3 4 5 6 7 8 9 10 11 12 13 14 15 16 17 18 19 20 21 22 23 24 25 26 27 28 29 30 31 32 33 34 35 36 37 38 39 40 41 42 43 44 45 46 47 48 49 50
000
ASUS43 KLOT 192000
RWRIL

ILLINOIS REGIONAL WEATHER ROUNDUP
NATIONAL WEATHER SERVICE CHICAGO/ROMEOVILLE IL
200 PM CST FRI DEC 19 2014

NOTE: "FAIR" INDICATES FEW OR NO CLOUDS BELOW 12,000 FEET WITH NO
SIGNIFICANT WEATHER AND/OR OBSTRUCTIONS TO VISIBILITY.

* THESE STATIONS ARE NOT UNDER NWS QUALITY CONTROL. THEY ALSO MAY NOT
  REPORT WEATHER SUCH AS PRECIPITATION OR FOG.

ILZ001-002-007-009-015-016-024-192100-
NORTHWEST ILLINOIS

CITY           SKY/WX    TMP DP  RH WIND       PRES   REMARKS
MOLINE         CLOUDY    31  19  61 CALM      30.27S
STERLING*      CLOUDY    28  21  74 CALM      30.27F
$$

ILZ003-004-008-010-011-017-018-192100-
NORTH CENTRAL ILLINOIS

CITY           SKY/WX    TMP DP  RH WIND       PRES   REMARKS
ROCKFORD       FLURRIES  28  21  75 NW5       30.28F WCI  23
$$

ILZ005-006-012>014-019>023-192100-
NORTHEAST ILLINOIS

CITY           SKY/WX    TMP DP  RH WIND       PRES   REMARKS
CHICAGO-OHARE  CLOUDY    31  21  66 NE6       30.25F WCI  25
CHICAGO-MIDWAY CLOUDY    34  23  64 CALM      30.26F
AURORA         CLOUDY    33  21  61 CALM      30.25F
WAUKEGAN       CLOUDY    30  21  69 CALM      30.26F
DUPAGE AIRPORT CLOUDY    31  21  66 CALM      30.24F
WHEELING       CLOUDY    31  21  66 NE3       30.27F
NORTHERLY ISL    N/A     33  22  64 SE1         N/A
$$

LMZ740>746-192100-
SOUTHERN LAKE MICHIGAN

STATION/POSITION SKY/WX   TEMP    WIND        PRES    VSBY  WAVE
                          AIR SEA DIR/SP/G                  HT/PER
                          (F)     (DEG/KT/KT) (MB)    (MI)  (FT/S)
WAUKEGAN HARBOR            30     290/  2/  4   N/A
HARRISON CRIB              31     330/  1/  2   N/A
BURNHAM HARBOR             33      CALM  /  8   N/A
CALUMET HARBOR             32     260/  3/  5 1023.5F
$$

ILZ025>027-034>036-040-047-049-050-058-095>099-192100-
WEST-CENTRAL ILLINOIS

CITY           SKY/WX    TMP DP  RH WIND       PRES   REMARKS
QUINCY         CLOUDY    33  26  75 SW5       30.28R WCI  29
$$

ILZ028>032-037-038-041>044-048-051>054-059>061-192100-
CENTRAL ILLINOIS

CITY           SKY/WX    TMP DP  RH WIND       PRES   REMARKS
DECATUR        MOSUNNY   34  22  61 S6        30.31R WCI  29
PEORIA         SUNNY     35  20  54 CALM      30.28S
SPRINGFIELD    CLOUDY    35  22  58 SW5       30.31R WCI  31
TAYLORVILLE    NOT AVBL
$$

ILZ033-039-045-046-055>057-062-063-192100-
EAST-CENTRAL ILLINOIS

CITY           SKY/WX    TMP DP  RH WIND       PRES   REMARKS
CHAMPAIGN      SUNNY     33  23  66 SE6       30.26F WCI  28
MATTOON        SUNNY     33  23  66 CALM      30.28R
$$

ILZ079-100>102-192100-
SOUTHWEST ILLINOIS

CITY           SKY/WX    TMP DP  RH WIND       PRES   REMARKS
BELLEVILLE     CLOUDY    36  28  75 SW1       30.31R
CAHOKIA*       CLOUDY    37  29  72 CALM      30.30S
$$

ILZ064>066-069>071-074>076-080>082-084>086-088>090-092>094-192100-
SOUTH-CENTRAL ILLINOIS

CITY           SKY/WX    TMP DP  RH WIND       PRES   REMARKS
CARBONDALE     CLOUDY    37  28  70 N5        30.29F WCI  33
MARION         CLOUDY    37  28  70 NW6       30.30S WCI  33
MT. VERNON     CLOUDY    37  25  60 SW3       30.30S
$$

ILZ067-068-072-073-078-083-087-091-192100-
SOUTHEAST ILLINOIS

CITY           SKY/WX    TMP DP  RH WIND       PRES   REMARKS
LAWRENCEVILLE  MOSUNNY   36  24  62 CALM      30.29R
$$

ABBREVIATIONS USED IN REMARKS
   TC - TEMPERATURE IN CELSIUS
  WCI - WIND CHILL INDEX
   HX - HEAT INDEX
  VSB - VISIBILITY
$$



USA.gov is the U.S. government's official web portal to all federal, state and local government web resources and services.